Kuiper-00245

operational
NORAD ID: 67150 Int'l Des: 2025-301 Owner: KUIP Country: US Constellation: kuiper
LEOCIRCULAR

About Kuiper-00245

Description loading...

Live Position

Loading 3D Globe...

Upcoming Passes

Altitude History

Altitude vs Time

uPlot chart will show altitude changes over time

Two-Line Element Set

1 67150U 25301T 26034.58335648 -.00848710 00000-0 -85866-1 0 9991
2 67150 51.9350 234.4785 0010123 279.7101 248.5362 14.93466049 5844
Epoch: Feb 3, 2026 • Age: 7 hours

Current Status

Altitude 594.9 km
Velocity 7.56 km/s
Sub-Earth Point 32.98°N, 167.22°E
Launch Date Dec 16, 2025
Age 0.1 years
Type internet

Technical Details

Classification Payload
Mass 490.00 kg
Dry Mass 490.00 kg
Total Mass 490.00 kg
Length 1.80 m
Diameter 0.70 m
Span 5.00 m
Shape Box + 2 pan
Manufacturer KUIP
Bus Type Kuiper
Phase Status In Orbit
Owner/State KUIP/US

Large Constellations

Loading constellations...